User: anonymous   Login
Location: Walnut Point State Park
(39.6958°N, 88.0345°W)
Time: 15:28:23
(UTC-05:00)
Language:

ATLAS 3B R/B - Orbit

View from above orbital plane
View from above orbital plane
View from above satellite
View from above satellite

Ground track
Ground track

The orbit data is extracted from the following two-line orbital elements,

1 28538U 05004B   17087.07370075 0.00000000  00000-0  00000-0 0    00
2 28538  63.8208 141.0304 0149000 182.3887 177.6113 13.43095753    05
Epoch (UTC): 28 March 2017 01:46:07
Eccentricity: 0.0149000
inclination: 63.8208°
perigee height: 986 km
apogee height: 1209 km
right ascension of ascending node: 141.0304°
argument of perigee: 182.3887°
revolutions per day: 13.43095753
mean anomaly at epoch: 177.6113°
orbit number at epoch: 0

The dashed part of the orbit path shows where the satellite is in the earth's shadow,  

DLR